FW6664 Weather Reports


Display with metric or nautical units.
time (UTC)temp
F
wind
direction
speed
MPH
gust
MPH
rain 1hr
in
rain 24hr
in
rain mn
in
humidity
%
barometer
mb
20260831042055 69 249 0.0 2.0 0.00 0.00 0.00 33 1017.0
20260831041840 70 249 2.0 0.0 0.00 0.00 0.00 33 1017.0
20260831041549 70 249 1.0 3.0 0.00 0.00 0.00 33 1017.0
20260831041336 70 249 2.0 0.0 0.00 0.00 0.00 33 1017.0
20260831041042 70 249 2.0 3.0 0.00 0.00 0.00 33 1017.0
20260831040832 70 249 0.0 0.0 0.00 0.00 0.00 33 1017.0
20260831040537 70 249 1.0 3.0 0.00 0.00 0.00 33 1017.0
20260831040350 70 249 2.0 0.0 0.00 0.00 0.00 33 1017.0
20260831040029 70 249 1.0 3.0 0.00 0.00 0.00 33 1017.0
20260831035825 70 249 4.0 0.0 0.00 0.00 0.00 33 1017.0
20260831035503 70 249 2.0 5.0 0.00 0.00 0.00 33 1017.0
20260831035340 70 249 1.0 0.0 0.00 0.00 0.00 33 1017.0
20260831035055 70 249 2.0 5.0 0.00 0.00 0.00 33 1017.0
20260831034838 70 249 2.0 0.0 0.00 0.00 0.00 33 1017.0
20260831034548 70 249 2.0 3.0 0.00 0.00 0.00 33 1017.0
20260831034334 71 251 3.0 0.0 0.00 0.00 0.00 33 1017.0
20260831034046 70 253 1.0 3.0 0.00 0.00 0.00 33 1017.0
20260831033835 71 253 0.0 0.0 0.00 0.00 0.00 33 1017.0
20260831033540 70 253 2.0 3.0 0.00 0.00 0.00 33 1017.0
20260831033355 71 253 4.0 0.0 0.00 0.00 0.00 33 1017.0
20260831033015 70 253 1.0 3.0 0.00 0.00 0.00 33 1017.0
20260831032833 71 253 2.0 0.0 0.00 0.00 0.00 33 1017.0
20260831032510 71 253 1.0 3.0 0.00 0.00 0.00 33 1017.0
20260831032327 71 253 1.0 0.0 0.00 0.00 0.00 33 1017.0
20260831032057 71 253 0.0 3.0 0.00 0.00 0.00 33 1017.0
20260831032001 71 253 0.0 3.0 0.00 0.00 0.00 33 1017.0
20260831031842 71 253 1.0 0.0 0.00 0.00 0.00 33 1017.0
20260831031552 71 254 2.0 3.0 0.00 0.00 0.00 33 1017.0
20260831031339 71 261 2.0 0.0 0.00 0.00 0.00 33 1017.0
20260831031046 71 261 1.0 3.0 0.00 0.00 0.00 33 1017.0
20260831030858 71 261 0.0 0.0 0.00 0.00 0.00 33 1017.0
20260831030521 71 261 1.0 2.0 0.00 0.00 0.00 33 1017.0
20260831030333 72 261 1.0 0.0 0.00 0.00 0.00 33 1017.0
20260831030014 71 261 2.0 3.0 0.00 0.00 0.00 33 1017.0
20260831025848 72 261 4.0 0.0 0.00 0.00 0.00 33 1017.0
20260831025543 71 263 1.0 3.0 0.00 0.00 0.00 33 1017.0
20260831025343 72 263 1.0 0.0 0.00 0.00 0.00 33 1017.0
20260831025037 72 263 2.0 4.0 0.00 0.00 0.00 33 1017.0
20260831024843 72 263 4.0 0.0 0.00 0.00 0.00 33 1017.0
20260831024529 72 278 1.0 4.0 0.00 0.00 0.00 33 1017.0
20260831024338 72 278 3.0 0.0 0.00 0.00 0.00 33 1017.0
20260831024027 72 269 3.0 4.0 0.00 0.00 0.00 33 1017.0
20260831023855 73 279 1.0 0.0 0.00 0.00 0.00 33 1017.0
20260831023557 72 274 2.0 4.0 0.00 0.00 0.00 33 1017.0
20260831023331 73 272 4.0 0.0 0.00 0.00 0.00 33 1017.0
20260831023049 72 251 2.0 4.0 0.00 0.00 0.00 33 1017.0
20260831022827 73 224 2.0 0.0 0.00 0.00 0.00 33 1017.0
20260831022546 73 224 2.0 4.0 0.00 0.00 0.00 33 1017.0
20260831022405 73 224 2.0 0.0 0.00 0.00 0.00 33 1017.0
20260831022014 73 224 1.0 4.0 0.00 0.00 0.00 33 1017.0
20260831021837 74 225 3.0 0.0 0.00 0.00 0.00 33 1017.0
20260831021530 74 224 1.0 3.0 0.00 0.00 0.00 33 1017.0
20260831021334 74 225 2.0 0.0 0.00 0.00 0.00 33 1017.0
20260831021005 74 225 2.0 4.0 0.00 0.00 0.00 33 1017.0
20260831020833 75 288 2.0 0.0 0.00 0.00 0.00 33 1017.0
20260831020600 75 288 1.0 4.0 0.00 0.00 0.00 33 1017.0
20260831020501 75 288 2.0 4.0 0.00 0.00 0.00 33 1017.0
20260831020330 75 288 3.0 0.0 0.00 0.00 0.00 33 1017.0
20260831020053 75 286 2.0 4.0 0.00 0.00 0.00 33 1017.0
20260831015827 76 283 5.0 0.0 0.00 0.00 0.00 33 1017.0
20260831015544 75 280 1.0 3.0 0.00 0.00 0.00 33 1017.0
20260831015326 76 280 1.0 0.0 0.00 0.00 0.00 33 1017.0
20260831015039 75 280 2.0 3.0 0.00 0.00 0.00 33 1017.0
20260831014846 76 276 3.0 0.0 0.00 0.00 0.00 33 1017.0
20260831014531 75 238 1.0 5.0 0.00 0.00 0.00 33 1017.0
20260831014340 76 235 3.0 0.0 0.00 0.00 0.00 33 1017.0
20260831014100 76 291 1.0 5.0 0.00 0.00 0.00 33 1017.0
20260831014006 76 291 1.0 5.0 0.00 0.00 0.00 33 1017.0
20260831013834 76 299 2.0 0.0 0.00 0.00 0.00 33 1017.0
20260831013555 76 213 4.0 5.0 0.00 0.00 0.00 33 1017.0
20260831013332 77 293 3.0 0.0 0.00 0.00 0.00 33 1017.0
20260831013052 77 274 3.0 5.0 0.00 0.00 0.00 33 1017.0
20260831012830 77 209 5.0 0.0 0.00 0.00 0.00 33 1017.0
20260831012546 77 284 2.0 4.0 0.00 0.00 0.00 33 1017.0
20260831012327 78 255 4.0 0.0 0.00 0.00 0.00 33 1017.0
20260831012042 77 266 2.0 4.0 0.00 0.00 0.00 33 1017.0
20260831011844 78 299 2.0 0.0 0.00 0.00 0.00 33 1017.0
20260831011540 77 229 3.0 5.0 0.00 0.00 0.00 33 1017.0
20260831011343 78 240 2.0 0.0 0.00 0.00 0.00 33 1017.0
20260831011029 78 268 3.0 6.0 0.00 0.00 0.00 33 1017.0
20260831010839 78 235 3.0 0.0 0.00 0.00 0.00 33 1017.0
20260831010521 78 285 2.0 6.0 0.00 0.00 0.00 33 1017.0
20260831010354 79 227 2.0 0.0 0.00 0.00 0.00 33 1017.0
20260831010127 78 273 5.0 9.0 0.00 0.00 0.00 33 1017.0
20260831005830 79 236 4.0 0.0 0.00 0.00 0.00 33 1017.0
20260831005548 78 268 3.0 9.0 0.00 0.00 0.00 33 1017.0
20260831005327 79 223 5.0 0.0 0.00 0.00 0.00 33 1017.0
20260831005042 79 208 6.0 9.0 0.00 0.00 0.00 33 1017.0
20260831004905 80 285 4.0 0.0 0.00 0.00 0.00 33 1017.0
20260831004517 79 249 3.0 5.0 0.00 0.00 0.00 33 1017.0
20260831004401 80 225 4.0 0.0 0.00 0.00 0.00 33 1017.0
20260831004045 80 225 2.0 5.0 0.00 0.00 0.00 33 1017.0
20260831003835 80 277 4.0 0.0 0.00 0.00 0.00 33 1017.0
20260831003539 79 290 3.0 6.0 0.00 0.00 0.00 33 1017.0
20260831003331 80 216 8.0 0.0 0.00 0.00 0.00 33 1017.0
20260831003034 80 268 4.0 6.0 0.00 0.00 0.00 33 1017.0
20260831002827 81 280 6.0 0.0 0.00 0.00 0.00 33 1017.0
20260831002529 80 227 4.0 5.0 0.00 0.00 0.00 33 1017.0
20260831002327 81 241 4.0 0.0 0.00 0.00 0.00 33 1017.0
20260831002024 80 233 3.0 5.0 0.00 0.00 0.00 33 1017.0
20260831001846 80 232 4.0 0.0 0.00 0.00 0.00 33 1017.0
20260831001606 80 197 3.0 6.0 0.00 0.00 0.00 33 1017.0
20260831001342 81 139 4.0 0.0 0.00 0.00 0.00 33 1017.0
20260831001025 81 218 2.0 6.0 0.00 0.00 0.00 33 1017.0
20260831000834 81 237 2.0 0.0 0.00 0.00 0.00 33 1017.0
20260831000521 81 262 4.0 6.0 0.00 0.00 0.00 33 1017.0
20260831000332 81 192 4.0 0.0 0.00 0.00 0.00 33 1017.0
20260831000014 80 204 3.0 6.0 0.00 0.00 0.00 33 1017.0
20260830235831 81 242 5.0 0.0 0.00 0.00 0.00 33 1017.0
20260830235510 81 206 5.0 6.0 0.00 0.00 0.00 33 1017.0
20260830235328 82 234 5.0 0.0 0.00 0.00 0.00 33 1017.0
20260830235101 81 231 3.0 6.0 0.00 0.00 0.00 33 1017.0
20260830235003 81 289 3.0 6.0 0.00 0.00 0.00 33 1017.0
20260830234845 81 234 2.0 0.0 0.00 0.00 0.00 33 1017.0
20260830234554 81 238 5.0 6.0 0.00 0.00 0.00 33 1017.0
20260830234339 82 208 4.0 0.0 0.00 0.00 0.00 33 1017.0
20260830234045 82 143 5.0 6.0 0.00 0.00 0.00 33 1017.0
20260830233835 82 197 5.0 0.0 0.00 0.00 0.00 33 1017.0
20260830233540 82 204 4.0 6.0 0.00 0.00 0.00 33 1017.0
20260830233330 82 276 9.0 0.0 0.00 0.00 0.00 33 1017.0
20260830233034 82 198 3.0 7.0 0.00 0.00 0.00 33 1017.0
20260830232826 82 264 4.0 0.0 0.00 0.00 0.00 33 1017.0
20260830232527 81 243 3.0 7.0 0.00 0.00 0.00 33 1017.0
20260830232343 82 241 6.0 0.0 0.00 0.00 0.00 33 1017.0
20260830232021 81 266 4.0 7.0 0.00 0.00 0.00 33 1017.0
20260830231838 82 227 3.0 0.0 0.00 0.00 0.00 33 1017.0
20260830231526 82 248 4.0 7.0 0.00 0.00 0.00 33 1017.0
20260830231334 82 281 6.0 0.0 0.00 0.00 0.00 33 1017.0
20260830231008 81 310 5.0 7.0 0.00 0.00 0.00 33 1017.0
20260830230831 82 265 6.0 0.0 0.00 0.00 0.00 33 1017.0
20260830230559 81 291 4.0 6.0 0.00 0.00 0.00 33 1017.0
20260830230503 81 210 4.0 6.0 0.00 0.00 0.00 33 1017.0
20260830230326 82 219 7.0 0.0 0.00 0.00 0.00 33 1017.0
20260830230055 81 224 4.0 7.0 0.00 0.00 0.00 33 1017.0
20260830225841 82 149 4.0 0.0 0.00 0.00 0.00 33 1017.0
20260830225543 82 151 6.0 9.0 0.00 0.00 0.00 33 1017.0
20260830225356 82 217 5.0 0.0 0.00 0.00 0.00 33 1017.0
20260830225015 81 255 7.0 9.0 0.00 0.00 0.00 33 1017.0
20260830224829 82 231 8.0 0.0 0.00 0.00 0.00 33 1017.0
20260830224509 82 205 4.0 7.0 0.00 0.00 0.00 33 1017.0
20260830224326 82 259 7.0 0.0 0.00 0.00 0.00 33 1017.0
20260830224006 81 211 6.0 8.0 0.00 0.00 0.00 33 1017.0
20260830223845 82 283 7.0 0.0 0.00 0.00 0.00 33 1017.0
20260830223556 82 208 6.0 9.0 0.00 0.00 0.00 33 1017.0
20260830223338 83 234 7.0 0.0 0.00 0.00 0.00 33 1017.0
20260830223046 82 165 4.0 9.0 0.00 0.00 0.00 33 1017.0
20260830222838 83 229 9.0 0.0 0.00 0.00 0.00 33 1017.0
20260830222541 83 227 5.0 6.0 0.00 0.00 0.00 33 1017.0
20260830222332 83 206 8.0 0.0 0.00 0.00 0.00 33 1017.0
20260830222036 83 209 5.0 6.0 0.00 0.00 0.00 33 1017.0
20260830221827 84 186 6.0 0.0 0.00 0.00 0.00 33 1017.0
20260830221525 83 252 3.0 6.0 0.00 0.00 0.00 33 1017.0
20260830221343 83 258 6.0 0.0 0.00 0.00 0.00 33 1017.0
20260830221018 83 265 5.0 6.0 0.00 0.00 0.00 33 1017.0
20260830220839 83 288 6.0 0.0 0.00 0.00 0.00 33 1017.0
20260830220513 83 280 3.0 6.0 0.00 0.00 0.00 33 1017.0
20260830220334 83 196 5.0 0.0 0.00 0.00 0.00 33 1017.0
20260830220007 82 139 5.0 6.0 0.00 0.00 0.00 33 1017.0
20260830215829 83 216 5.0 0.0 0.00 0.00 0.00 33 1017.0
20260830215556 83 140 3.0 6.0 0.00 0.00 0.00 33 1017.0
20260830215502 83 160 3.0 6.0 0.00 0.00 0.00 33 1017.0
20260830215326 83 178 4.0 0.0 0.00 0.00 0.00 33 1017.0
20260830215055 83 138 5.0 6.0 0.00 0.00 0.00 33 1017.0
20260830214847 83 144 2.0 0.0 0.00 0.00 0.00 33 1017.0
20260830214528 82 201 3.0 6.0 0.00 0.00 0.00 33 1017.0
20260830214342 83 174 3.0 0.0 0.00 0.00 0.00 33 1017.0
20260830214018 83 146 5.0 7.0 0.00 0.00 0.00 33 1017.0
20260830213834 83 277 9.0 0.0 0.00 0.00 0.00 33 1017.0
20260830213515 83 221 3.0 7.0 0.00 0.00 0.00 33 1017.0
20260830213331 83 207 5.0 0.0 0.00 0.00 0.00 33 1017.0
20260830213100 83 282 4.0 8.0 0.00 0.00 0.00 33 1017.0
20260830213004 82 285 4.0 8.0 0.00 0.00 0.00 33 1017.0
20260830212826 83 167 2.0 0.0 0.00 0.00 0.00 33 1017.0
20260830212558 82 207 5.0 8.0 0.00 0.00 0.00 33 1017.0
20260830212501 83 217 5.0 8.0 0.00 0.00 0.00 33 1017.0
20260830212342 83 289 5.0 0.0 0.00 0.00 0.00 33 1017.0
20260830212049 83 211 8.0 8.0 0.00 0.00 0.00 33 1017.0
20260830211839 83 266 10.0 0.0 0.00 0.00 0.00 33 1017.0
20260830211541 83 216 4.0 9.0 0.00 0.00 0.00 33 1017.0
20260830211332 83 250 5.0 0.0 0.00 0.00 0.00 33 1017.0
20260830211036 83 281 5.0 9.0 0.00 0.00 0.00 33 1017.0
20260830210828 83 280 5.0 0.0 0.00 0.00 0.00 33 1017.0
20260830210532 82 281 5.0 8.0 0.00 0.00 0.00 33 1017.0
20260830210331 83 182 3.0 0.0 0.00 0.00 0.00 33 1017.0
20260830210024 83 235 6.0 8.0 0.00 0.00 0.00 33 1017.0
20260830205828 84 285 10.0 0.0 0.00 0.00 0.00 33 1017.0
20260830205520 84 287 4.0 6.0 0.00 0.00 0.00 33 1017.0
20260830205347 84 140 7.0 0.0 0.00 0.00 0.00 33 1017.0
20260830205015 84 211 3.0 6.0 0.00 0.00 0.00 33 1017.0
20260830204841 84 232 5.0 0.0 0.00 0.00 0.00 33 1017.0
20260830204509 84 283 4.0 8.0 0.00 0.00 0.00 33 1017.0
20260830204340 84 214 6.0 0.0 0.00 0.00 0.00 33 1017.0
20260830204102 84 292 5.0 9.0 0.00 0.00 0.00 33 1017.0
20260830204005 83 277 5.0 9.0 0.00 0.00 0.00 33 1017.0
20260830203833 84 291 3.0 0.0 0.00 0.00 0.00 33 1017.0
20260830203554 83 288 7.0 9.0 0.00 0.00 0.00 33 1017.0
20260830203331 83 241 2.0 0.0 0.00 0.00 0.00 33 1017.0
20260830203105 83 284 4.0 6.0 0.00 0.00 0.00 33 1017.0
20260830202850 84 211 5.0 0.0 0.00 0.00 0.00 33 1017.0
20260830202524 83 301 4.0 7.0 0.00 0.00 0.00 33 1017.0
20260830202325 83 274 5.0 0.0 0.00 0.00 0.00 33 1017.0
20260830202019 82 216 3.0 7.0 0.00 0.00 0.00 33 1017.0
20260830201842 83 213 7.0 0.0 0.00 0.00 0.00 33 1017.0
20260830201514 82 202 5.0 7.0 0.00 0.00 0.00 33 1017.0
20260830201340 83 158 8.0 0.0 0.00 0.00 0.00 33 1017.0
20260830201008 82 193 2.0 9.0 0.00 0.00 0.00 33 1017.0
20260830200836 82 135 2.0 0.0 0.00 0.00 0.00 33 1017.0
20260830200600 82 212 5.0 9.0 0.00 0.00 0.00 33 1017.0
20260830200505 83 263 4.0 9.0 0.00 0.00 0.00 33 1017.0
20260830200333 83 248 6.0 0.0 0.00 0.00 0.00 33 1017.0
20260830200059 83 250 6.0 9.0 0.00 0.00 0.00 33 1017.0
20260830195830 83 253 10.0 0.0 0.00 0.00 0.00 33 1017.0
20260830195549 82 227 6.0 9.0 0.00 0.00 0.00 33 1017.0
20260830195326 83 225 6.0 0.0 0.00 0.00 0.00 33 1017.0
20260830195045 83 268 3.0 9.0 0.00 0.00 0.00 33 1017.0
20260830194904 83 263 4.0 0.0 0.00 0.00 0.00 33 1017.0
20260830194517 82 289 6.0 9.0 0.00 0.00 0.00 33 1017.0
20260830194341 83 237 11.0 0.0 0.00 0.00 0.00 33 1017.0
20260830194011 82 281 7.0 9.0 0.00 0.00 0.00 33 1017.0
20260830193835 83 260 7.0 0.0 0.00 0.00 0.00 33 1017.0
20260830193507 82 214 6.0 12.0 0.00 0.00 0.00 33 1017.0
20260830193338 82 293 5.0 0.0 0.00 0.00 0.00 33 1017.0
20260830193058 81 237 6.0 12.0 0.00 0.00 0.00 33 1017.0
20260830193002 82 226 8.0 12.0 0.00 0.00 0.00 33 1017.0
20260830192835 83 213 10.0 0.0 0.00 0.00 0.00 33 1017.0
20260830192551 82 213 4.0 6.0 0.00 0.00 0.00 33 1017.0
20260830192351 82 265 4.0 0.0 0.00 0.00 0.00 33 1017.0
20260830192025 82 218 4.0 8.0 0.00 0.00 0.00 33 1017.0
20260830191828 82 204 12.0 0.0 0.00 0.00 0.00 33 1017.0
20260830191520 82 215 3.0 8.0 0.00 0.00 0.00 33 1017.0
20260830191327 83 282 4.0 0.0 0.00 0.00 0.00 33 1017.0
20260830191015 82 285 6.0 8.0 0.00 0.00 0.00 33 1017.0
20260830190842 83 286 6.0 0.0 0.00 0.00 0.00 33 1017.0
20260830190511 82 264 2.0 7.0 0.00 0.00 0.00 33 1017.0
20260830190337 82 283 8.0 0.0 0.00 0.00 0.00 33 1017.0
20260830190040 82 274 4.0 9.0 0.00 0.00 0.00 33 1017.0
20260830185833 82 214 5.0 0.0 0.00 0.00 0.00 33 1017.0
20260830185531 82 243 4.0 9.0 0.00 0.00 0.00 33 1017.0
20260830185327 82 206 4.0 0.0 0.00 0.00 0.00 33 1017.0
20260830185021 81 283 6.0 9.0 0.00 0.00 0.00 33 1017.0
20260830184843 82 281 6.0 0.0 0.00 0.00 0.00 33 1017.0
20260830184518 81 302 2.0 9.0 0.00 0.00 0.00 33 1017.0
20260830184339 82 215 8.0 0.0 0.00 0.00 0.00 33 1017.0
20260830184008 81 224 3.0 9.0 0.00 0.00 0.00 33 1017.0
20260830183833 82 261 6.0 0.0 0.00 0.00 0.00 33 1017.0
20260830183559 81 270 4.0 9.0 0.00 0.00 0.00 33 1017.0
20260830183501 81 285 6.0 9.0 0.00 0.00 0.00 33 1017.0
20260830183327 82 285 4.0 0.0 0.00 0.00 0.00 33 1017.0
20260830183030 81 232 5.0 8.0 0.00 0.00 0.00 33 1017.0
20260830182846 82 286 3.0 0.0 0.00 0.00 0.00 33 1017.0
20260830182505 81 264 5.0 6.0 0.00 0.00 0.00 33 1017.0
20260830182341 82 202 3.0 0.0 0.00 0.00 0.00 33 1017.0
20260830182056 81 257 4.0 7.0 0.00 0.00 0.00 33 1017.0
20260830181837 82 220 6.0 0.0 0.00 0.00 0.00 33 1017.0
20260830181554 82 216 3.0 7.0 0.00 0.00 0.00 33 1017.0
20260830181334 82 250 4.0 0.0 0.00 0.00 0.00 33 1017.0
20260830181045 81 265 6.0 7.0 0.00 0.00 0.00 33 1017.0
20260830180830 82 270 4.0 0.0 0.00 0.00 0.00 33 1017.0
20260830180543 81 215 5.0 7.0 0.00 0.00 0.00 33 1017.0
20260830180326 81 256 4.0 0.0 0.00 0.00 0.00 33 1017.0
20260830180051 81 190 3.0 8.0 0.00 0.00 0.00 33 1017.0
20260830175906 81 221 6.0 0.0 0.00 0.00 0.00 33 1017.0
20260830175508 81 290 5.0 8.0 0.00 0.00 0.00 33 1017.0
20260830175342 81 212 8.0 0.0 0.00 0.00 0.00 33 1017.0
20260830175059 81 225 6.0 8.0 0.00 0.00 0.00 33 1017.0
20260830175003 81 212 4.0 7.0 0.00 0.00 0.00 33 1017.0
20260830174858 81 279 6.0 0.0 0.00 0.00 0.00 33 1017.0
20260830174541 81 272 5.0 7.0 0.00 0.00 0.00 33 1017.0
20260830174335 82 277 3.0 0.0 0.00 0.00 0.00 33 1017.0
20260830174030 81 242 4.0 6.0 0.00 0.00 0.00 33 1017.0
20260830173838 82 228 5.0 0.0 0.00 0.00 0.00 33 1017.0
20260830173527 81 279 4.0 5.0 0.00 0.00 0.00 33 1017.0
20260830173335 81 296 5.0 0.0 0.00 0.00 0.00 33 1017.0
20260830173039 81 212 1.0 5.0 0.00 0.00 0.00 33 1017.0
20260830172831 81 151 2.0 0.0 0.00 0.00 0.00 33 1017.0
20260830172517 80 243 3.0 6.0 0.00 0.00 0.00 33 1017.0
20260830172352 80 160 5.0 0.0 0.00 0.00 0.00 33 1017.0
20260830172046 80 288 4.0 6.0 0.00 0.00 0.00 33 1017.0
20260830171907 80 222 4.0 0.0 0.00 0.00 0.00 33 1017.0
20260830171521 79 315 3.0 6.0 0.00 0.00 0.00 33 1017.0
20260830171342 80 220 3.0 0.0 0.00 0.00 0.00 33 1017.0
20260830171016 79 229 1.0 4.0 0.00 0.00 0.00 33 1017.0
20260830170839 79 205 3.0 0.0 0.00 0.00 0.00 33 1017.0
20260830170509 78 235 2.0 4.0 0.00 0.00 0.00 33 1017.0
20260830170356 79 256 1.0 0.0 0.00 0.00 0.00 33 1017.0
20260830170040 78 209 2.0 3.0 0.00 0.00 0.00 33 1017.0
20260830165832 79 241 4.0 0.0 0.00 0.00 0.00 33 1017.0
20260830165535 78 269 2.0 3.0 0.00 0.00 0.00 33 1017.0
20260830165349 78 207 3.0 0.0 0.00 0.00 0.00 33 1017.0
20260830165025 78 236 2.0 6.0 0.00 0.00 0.00 33 1017.0
20260830164844 78 269 4.0 0.0 0.00 0.00 0.00 33 1017.0
20260830164519 77 218 4.0 6.0 0.00 0.00 0.00 33 1017.0
20260830164359 78 218 2.0 0.0 0.00 0.00 0.00 33 1017.0
20260830164047 77 166 2.0 4.0 0.00 0.00 0.00 33 1017.0
20260830163833 78 251 1.0 0.0 0.00 0.00 0.00 33 1017.0
20260830163543 77 225 2.0 4.0 0.00 0.00 0.00 33 1017.0
20260830163350 77 213 1.0 0.0 0.00 0.00 0.00 33 1017.0
20260830163014 76 213 1.0 2.0 0.00 0.00 0.00 33 1017.0
20260830162845 77 213 2.0 0.0 0.00 0.00 0.00 33 1017.0
20260830162509 76 213 0.0 1.0 0.00 0.00 0.00 33 1017.0
20260830162340 76 214 3.0 0.0 0.00 0.00 0.00 33 1017.0
20260830162059 75 214 1.0 1.0 0.00 0.00 0.00 33 1017.0
20260830162001 75 284 1.0 2.0 0.00 0.00 0.00 33 1017.0
20260830161836 75 284 1.0 0.0 0.00 0.00 0.00 33 1017.0
20260830161614 74 284 0.0 3.0 0.00 0.00 0.00 33 1017.0
20260830161355 75 284 0.0 0.0 0.00 0.00 0.00 33 1017.0
20260830161027 74 284 1.0 3.0 0.00 0.00 0.00 33 1017.0
20260830160853 74 284 3.0 0.0 0.00 0.00 0.00 33 1017.0
20260830160600 73 283 1.0 2.0 0.00 0.00 0.00 33 1017.0
20260830160502 73 283 1.0 2.0 0.00 0.00 0.00 33 1017.0
20260830160329 74 283 2.0 0.0 0.00 0.00 0.00 33 1017.0
20260830160053 73 283 1.0 2.0 0.00 0.00 0.00 33 1017.0
20260830155846 73 283 2.0 0.0 0.00 0.00 0.00 33 1017.0
20260830155548 73 283 2.0 3.0 0.00 0.00 0.00 33 1017.0
20260830155342 73 283 4.0 0.0 0.00 0.00 0.00 33 1017.0
20260830155043 72 283 2.0 3.0 0.00 0.00 0.00 33 1017.0
20260830154838 73 283 1.0 0.0 0.00 0.00 0.00 33 1017.0
20260830154538 72 287 2.0 3.0 0.00 0.00 0.00 33 1017.0
20260830154333 72 288 0.0 0.0 0.00 0.00 0.00 33 1017.0
20260830154033 72 181 0.0 0.0 0.00 0.00 0.00 33 1017.0
20260830153839 72 181 0.0 0.0 0.00 0.00 0.00 33 1017.0
20260830153524 71 181 0.0 0.0 0.00 0.00 0.00 33 1017.0
20260830153331 72 181 0.0 0.0 0.00 0.00 0.00 33 1017.0
20260830153017 71 181 0.0 0.0 0.00 0.00 0.00 33 1017.0
20260830152846 71 181 0.0 0.0 0.00 0.00 0.00 33 1017.0
20260830152510 71 181 0.0 0.0 0.00 0.00 0.00 33 1017.0
20260830152339 71 181 0.0 0.0 0.00 0.00 0.00 33 1017.0
20260830152055 71 181 0.0 0.0 0.00 0.00 0.00 33 1017.0
20260830151832 71 181 0.0 0.0 0.00 0.00 0.00 33 1017.0
20260830151547 70 181 0.0 0.0 0.00 0.00 0.00 33 1017.0
20260830151328 71 180 0.0 0.0 0.00 0.00 0.00 33 1017.0
20260830151042 70 180 0.0 0.0 0.00 0.00 0.00 33 1017.0
20260830150844 70 181 0.0 0.0 0.00 0.00 0.00 33 1017.0
20260830150535 70 181 0.0 0.0 0.00 0.00 0.00 33 1017.0
20260830150340 70 181 0.0 0.0 0.00 0.00 0.00 33 1017.0
20260830150025 70 180 0.0 0.0 0.00 0.00 0.00 33 1017.0
20260830145854 70 181 0.0 0.0 0.00 0.00 0.00 33 1017.0
20260830145557 70 181 0.0 0.0 0.00 0.00 0.00 33 1017.0
20260830145408 70 180 0.0 0.0 0.00 0.00 0.00 33 1017.0
20260830145025 69 181 0.0 0.0 0.00 0.00 0.00 33 1017.0
20260830144903 70 181 0.0 0.0 0.00 0.00 0.00 33 1017.0
20260830144557 69 181 0.0 0.0 0.00 0.00 0.00 33 1017.0
20260830144338 70 180 0.0 0.0 0.00 0.00 0.00 33 1017.0
20260830144053 69 180 0.0 0.0 0.00 0.00 0.00 33 1017.0
20260830143834 69 181 0.0 0.0 0.00 0.00 0.00 33 1017.0
20260830143543 69 181 0.0 0.0 0.00 0.00 0.00 33 1017.0
20260830143351 69 181 0.0 0.0 0.00 0.00 0.00 33 1017.0
20260830143127 71 217 0.0 0.0 0.00 0.00 0.00 33 1017.0
20260830090655 70 217 0.0 0.0 0.00 0.00 0.00 33 1017.0
20260830090343 71 217 0.0 0.0 0.00 0.00 0.00 33 1017.0
20260830090050 70 217 0.0 0.0 0.00 0.00 0.00 33 1017.0